Hourly Data Report for May 05, 2021

OTTAWA INTL A
ONTARIO
Current Station Operator: NAVCAN

45°19'00.000" N
75°40'00.000" W
114.90 m
6106001
71628
YOW

Download Data

Hourly Data (May 2021)
Hourly Data Report for May 5, 2021
TIME
LST
Temp Definition
°C
Dew Point Definition
°C
Rel Hum Definition
%
Precip. Amount Definition
mm

Wind Dir Definition
10's deg

Wind Spd Definition
km/h
Visibility Definition
km
Stn Press Definition
kPa
Hmdx Definition


Wind Chill Definition


Weather Definition


00:00 8.1 7.0 92   36 9 12.9 99.01     LegendNANA
01:00 7.8 7.3 96   36 9 6.4 99.02     Rain, Fog
02:00 7.9 7.4 97   35 8 6.4 99.02     Fog
03:00 8.0 7.6 97   30 5 8.1 99.07     Fog
04:00 8.1 7.8 98   30 9 6.4 99.06     Drizzle, Fog
05:00 8.2 7.8 98   22 9 8.1 99.10     Rain, Fog
06:00 8.2 7.9 98   23 7 9.7 99.13     Rain, Fog
07:00 8.5 8.3 98   26 11 9.7 99.17     Rain, Fog
08:00 8.9 8.5 97   30 11 9.7 99.15     Rain, Fog
09:00 9.2 8.5 95   29 18 12.9 99.19     LegendNANA
10:00 9.8 8.8 93   28 17 16.1 99.22     Cloudy
11:00 10.2 8.5 89   29 21 24.1 99.27     LegendNANA
12:00 10.2 8.0 86   28 22 24.1 99.29     LegendNANA
13:00 10.4 6.9 79   28 21 24.1 99.32     Clear
14:00 10.3 6.7 78   27 22 24.1 99.34     LegendNANA
15:00 10.3 7.1 80   30 17 24.1 99.35     LegendNANA
16:00 10.4 6.5 76   30 13 24.1 99.40     Cloudy
17:00 10.0 6.6 79   30 17 24.1 99.44     LegendNANA
18:00 10.3 5.9 74   30 19 24.1 99.48     LegendNANA
19:00 10.2 4.6 68   32 24 24.1 99.56     Cloudy
20:00 8.1 5.7 85   32 19 24.1 99.69     Rain
21:00 8.6 3.8 72   32 35 24.1 99.78     LegendNANA
22:00 8.2 3.7 73   30 19 24.1 99.81     Mostly Cloudy
23:00 7.8 3.3 73   29 23 24.1 99.84     LegendNANA

Notes on Data Quality.

Legend

  • E = Estimated
  • M = Missing
  • NA = Not Available*
  • [empty] = Indicates an unobserved value
Date modified: